This is the latest recevied weather packets stored in our database for station/object JH5EWP-13. If no packets are shown the sender has not sent any weather packets the latest 10 day(s).
| Time | Temp. | Humidity | Pressure | Rain* | Wind** | Luminosity | Snow |
|---|---|---|---|---|---|---|---|
| 1788274341 | 27.22° C | 50% | 1002.9 hPa | 0 mm | - | - | - |
| 1788272541 | 27.22° C | 50% | 1003 hPa | 0 mm | - | - | - |
| 1788270740 | 27.78° C | 45% | 1002.7 hPa | 0 mm | - | - | - |
| 1788268952 | 27.22° C | 50% | 1003 hPa | 0 mm | - | - | - |
| 1788267141 | 27.78° C | 45% | 1002.9 hPa | 0 mm | - | - | - |
| 1788265341 | 27.78° C | 45% | 1003.2 hPa | 0 mm | - | - | - |
| 1788263540 | 27.78° C | 45% | 1003.5 hPa | 0 mm | - | - | - |
| 1788261742 | 27.78° C | 45% | 1003.7 hPa | 0 mm | - | - | - |
| 1788259942 | 27.78° C | 45% | 1003.2 hPa | 0 mm | - | - | - |
| 1788258141 | 27.78° C | 45% | 1003.1 hPa | 0 mm | - | - | - |
| 1788256341 | 28.33° C | 45% | 1002.6 hPa | 0 mm | - | - | - |
| 1788254540 | 29.44° C | 46% | 1002.4 hPa | 22.86 mm | - | - | - |
| 1788252740 | 32.78° C | 41% | 1002.3 hPa | 22.86 mm | - | - | - |
| 1788250941 | 32.22° C | 45% | 1002.4 hPa | 0 mm | - | - | - |
| 1788249141 | 30.56° C | 46% | 1002.4 hPa | 0 mm | - | - | - |
| 1788247340 | 29.44° C | 46% | 1002.6 hPa | 0 mm | - | - | - |
| 1788245540 | 29.44° C | 46% | 1002.6 hPa | 0 mm | - | - | - |
| 1788243741 | 30° C | 46% | 1002.5 hPa | 0 mm | - | - | - |
| 1788241940 | 31.11° C | 45% | 1002.4 hPa | 0 mm | - | - | - |
| 1788238840 | 31.67° C | 44% | 1002.4 hPa | 0 mm | - | - | - |
| 1788237039 | 32.78° C | 39% | 1002.5 hPa | 0 mm | - | - | - |
| 1788236647 | 32.22° C | 40% | 1002.5 hPa | 0 mm | - | - | - |
| 1788234847 | 32.78° C | 41% | 1002.4 hPa | 0 mm | - | - | - |
| 1788233047 | 32.22° C | 44% | 1002.8 hPa | 0 mm | - | - | - |
| 1788231249 | 32.78° C | 40% | 1002.5 hPa | 0 mm | - | - | - |
* Rain latest hour (hover to see other rain measurements)
** Current wind speed in m/s (hover to see current wind gust speed)